Location: Blackwater Beach
(38.5801°N, 75.1577°W)
Time: 03:32:13
(UTC+00:00)

Cosmos 2297 Rocket - Pass Details

Date: 25 May 2026
Orbit: 838 x 842 km, 71.0° (Epoch: 9 June)

Event Time Altitude Azimuth Distance (km) Brightness Sun altitude
Exits shadow 03:51:32 - 248° (WSW) 2,752 4.8 -28.5°
Reaches altitude 10° 03:52:34 10° 255° (WSW) 2,450 4.6 -28.6°
Maximum altitude 03:56:52 22° 305° (NW) 1,752 4.3 -28.8°
Drops below altitude 10° 04:01:12 10° 355° (N) 2,462 5.5 -29.0°
Sets 04:04:14 0° 11° (N) 3,401 6.3 -29.2°
